Time,TemperatureF,DewpointF,PressureIn,WindDirection,WindDirectionDegrees,WindSpeedMPH,WindSpeedGustMPH,Humidity,HourlyPrecipIn,Conditions,Clouds,dailyrainin,SoftwareType,DateUTC
2013-07-12 00:00:00,72.2,71.0,29.89,ESE,103,0.0,0.0,96,0.00,,,0.75,Wunderground v.1.15,2013-07-12 04:00:00,
2013-07-12 00:10:00,72.1,70.9,29.90,ESE,103,0.0,0.0,96,0.00,,,0.00,Wunderground v.1.15,2013-07-12 04:10:00,
2013-07-12 00:20:00,72.1,70.9,29.91,ESE,103,0.0,0.0,96,0.00,,,0.00,Wunderground v.1.15,2013-07-12 04:20:00,
2013-07-12 00:30:00,72.0,70.8,29.91,ESE,103,0.0,0.0,96,0.00,,,0.00,Wunderground v.1.15,2013-07-12 04:30:00,
2013-07-12 00:40:00,72.0,70.8,29.90,ESE,103,0.0,0.0,96,0.00,,,0.00,Wunderground v.1.15,2013-07-12 04:40:00,
2013-07-12 00:50:00,71.8,70.6,29.90,ESE,105,0.0,0.0,96,0.00,,,0.00,Wunderground v.1.15,2013-07-12 04:50:00,
2013-07-12 01:00:00,71.7,70.5,29.90,ESE,105,0.0,0.0,96,0.00,,,0.00,Wunderground v.1.15,2013-07-12 05:00:00,
2013-07-12 01:10:00,71.7,70.5,29.90,ESE,105,0.0,0.0,96,0.00,,,0.00,Wunderground v.1.15,2013-07-12 05:10:00,
2013-07-12 01:20:00,71.6,70.4,29.90,ESE,105,0.0,0.0,96,0.00,,,0.00,Wunderground v.1.15,2013-07-12 05:20:00,
2013-07-12 01:30:00,71.6,70.4,29.90,ESE,105,0.0,0.0,96,0.00,,,0.00,Wunderground v.1.15,2013-07-12 05:30:00,
2013-07-12 01:40:00,71.6,70.4,29.89,ESE,105,0.0,0.0,96,0.00,,,0.01,Wunderground v.1.15,2013-07-12 05:40:00,
2013-07-12 01:50:00,71.6,70.4,29.89,ESE,105,0.0,0.0,96,0.00,,,0.01,Wunderground v.1.15,2013-07-12 05:50:00,
2013-07-12 02:00:00,71.6,70.4,29.89,ESE,105,0.0,0.0,96,0.04,,,0.02,Wunderground v.1.15,2013-07-12 06:00:00,
2013-07-12 02:10:00,71.6,70.4,29.88,ESE,105,0.0,0.0,96,0.04,,,0.02,Wunderground v.1.15,2013-07-12 06:10:00,
2013-07-12 02:20:00,71.5,70.3,29.88,ESE,105,0.0,0.0,96,0.00,,,0.02,Wunderground v.1.15,2013-07-12 06:20:00,
2013-07-12 02:30:00,71.5,70.3,29.88,ESE,105,0.0,0.0,96,0.00,,,0.02,Wunderground v.1.15,2013-07-12 06:30:00,
2013-07-12 02:40:00,71.4,70.2,29.89,ESE,105,0.0,0.0,96,0.00,,,0.02,Wunderground v.1.15,2013-07-12 06:40:00,
2013-07-12 02:50:00,71.3,70.1,29.89,ESE,105,0.0,0.0,96,0.00,,,0.02,Wunderground v.1.15,2013-07-12 06:50:00,
2013-07-12 03:00:00,71.3,70.1,29.89,ESE,105,0.0,0.0,96,0.00,,,0.02,Wunderground v.1.15,2013-07-12 07:00:00,
2013-07-12 03:10:00,71.3,70.1,29.88,ESE,105,0.0,0.0,96,0.00,,,0.02,Wunderground v.1.15,2013-07-12 07:10:00,
2013-07-12 03:20:00,71.2,70.0,29.88,ESE,105,0.0,0.0,96,0.00,,,0.02,Wunderground v.1.15,2013-07-12 07:20:00,
2013-07-12 03:30:00,71.1,69.9,29.88,ESE,105,0.0,0.0,96,0.00,,,0.02,Wunderground v.1.15,2013-07-12 07:30:00,
2013-07-12 03:40:00,71.0,69.8,29.88,ESE,105,0.0,0.0,96,0.00,,,0.02,Wunderground v.1.15,2013-07-12 07:40:00,
2013-07-12 03:50:00,70.9,69.7,29.88,ESE,105,0.0,0.0,96,0.00,,,0.02,Wunderground v.1.15,2013-07-12 07:50:00,
2013-07-12 04:00:00,70.8,69.6,29.88,ESE,105,0.0,0.0,96,0.00,,,0.02,Wunderground v.1.15,2013-07-12 08:00:00,
2013-07-12 04:10:00,70.8,69.6,29.87,ESE,105,0.0,0.0,96,0.00,,,0.02,Wunderground v.1.15,2013-07-12 08:10:00,
2013-07-12 04:20:00,70.6,69.4,29.87,ESE,105,0.0,0.0,96,0.00,,,0.02,Wunderground v.1.15,2013-07-12 08:20:00,
2013-07-12 04:30:00,70.6,69.4,29.88,ESE,105,0.0,0.0,96,0.00,,,0.02,Wunderground v.1.15,2013-07-12 08:30:00,
2013-07-12 04:40:00,70.6,69.4,29.88,ESE,105,0.0,0.0,96,0.00,,,0.02,Wunderground v.1.15,2013-07-12 08:40:00,
2013-07-12 04:50:00,70.5,69.3,29.88,ESE,105,0.0,0.0,96,0.00,,,0.02,Wunderground v.1.15,2013-07-12 08:50:00,
2013-07-12 05:00:00,70.4,69.2,29.88,ESE,105,0.0,0.0,96,0.00,,,0.02,Wunderground v.1.15,2013-07-12 09:00:00,
2013-07-12 05:10:00,70.4,69.2,29.88,ESE,105,0.0,0.0,96,0.00,,,0.02,Wunderground v.1.15,2013-07-12 09:10:00,
2013-07-12 05:20:00,70.4,69.2,29.88,ESE,105,0.0,0.0,96,0.00,,,0.02,Wunderground v.1.15,2013-07-12 09:20:00,
2013-07-12 05:30:00,70.4,69.2,29.88,ESE,105,0.0,0.0,96,0.00,,,0.02,Wunderground v.1.15,2013-07-12 09:30:00,
2013-07-12 05:40:00,70.3,69.1,29.89,ESE,105,0.0,0.0,96,0.00,,,0.02,Wunderground v.1.15,2013-07-12 09:40:00,
2013-07-12 05:50:00,70.4,69.2,29.89,ESE,105,0.0,0.0,96,0.00,,,0.02,Wunderground v.1.15,2013-07-12 09:50:00,
2013-07-12 06:00:00,70.4,69.2,29.89,ESE,105,0.0,0.0,96,0.00,,,0.02,Wunderground v.1.15,2013-07-12 10:00:00,
2013-07-12 06:10:00,70.5,69.3,29.89,ESE,105,0.0,0.0,96,0.00,,,0.02,Wunderground v.1.15,2013-07-12 10:10:00,
2013-07-12 06:20:00,70.5,69.3,29.89,ESE,105,0.0,0.0,96,0.00,,,0.02,Wunderground v.1.15,2013-07-12 10:20:00,
2013-07-12 06:30:00,70.5,69.3,29.89,ESE,105,0.0,0.0,96,0.00,,,0.02,Wunderground v.1.15,2013-07-12 10:30:00,
2013-07-12 06:40:00,70.5,69.3,29.89,ESE,105,0.0,0.0,96,0.00,,,0.02,Wunderground v.1.15,2013-07-12 10:40:00,
2013-07-12 06:50:00,70.5,69.3,29.90,ESE,105,0.0,0.0,96,0.00,,,0.02,Wunderground v.1.15,2013-07-12 10:50:00,
2013-07-12 07:00:00,70.6,69.4,29.90,ESE,105,0.0,0.0,96,0.00,,,0.02,Wunderground v.1.15,2013-07-12 11:00:00,
2013-07-12 07:10:00,70.7,69.5,29.90,ESE,105,0.0,0.0,96,0.00,,,0.02,Wunderground v.1.15,2013-07-12 11:10:00,
2013-07-12 07:20:00,70.8,69.6,29.90,ESE,105,0.0,0.0,96,0.00,,,0.02,Wunderground v.1.15,2013-07-12 11:20:00,
2013-07-12 07:30:00,70.9,69.7,29.90,ESE,105,0.0,0.0,96,0.00,,,0.02,Wunderground v.1.15,2013-07-12 11:30:00,
2013-07-12 07:40:00,71.2,70.3,29.90,ESE,105,0.0,0.0,97,0.00,,,0.03,Wunderground v.1.15,2013-07-12 11:40:00,
2013-07-12 07:50:00,71.3,70.4,29.91,ESE,105,0.0,0.0,97,0.00,,,0.03,Wunderground v.1.15,2013-07-12 11:50:00,
2013-07-12 08:00:00,71.3,70.1,29.91,ESE,105,0.0,0.0,96,0.00,,,0.03,Wunderground v.1.15,2013-07-12 12:00:00,
2013-07-12 08:10:00,71.4,70.2,29.91,ESE,105,0.0,0.0,96,0.00,,,0.03,Wunderground v.1.15,2013-07-12 12:10:00,
2013-07-12 08:20:00,71.6,70.4,29.91,ESE,105,0.0,0.0,96,0.00,,,0.03,Wunderground v.1.15,2013-07-12 12:20:00,
2013-07-12 08:30:00,71.7,70.8,29.91,ESE,105,0.0,0.0,97,0.00,,,0.03,Wunderground v.1.15,2013-07-12 12:30:00,
2013-07-12 08:40:00,71.8,70.9,29.92,South,177,0.0,0.0,97,0.00,,,0.04,Wunderground v.1.15,2013-07-12 12:40:00,
2013-07-12 08:50:00,71.1,69.9,29.92,NW,319,1.0,1.0,96,0.23,,,0.07,Wunderground v.1.15,2013-07-12 12:50:00,
2013-07-12 09:00:00,70.8,69.6,29.92,NW,317,0.0,0.0,96,0.07,,,0.08,Wunderground v.1.15,2013-07-12 13:00:00,
2013-07-12 09:10:00,71.0,69.8,29.92,NNE,17,0.0,0.0,96,0.05,,,0.08,Wunderground v.1.15,2013-07-12 13:10:00,
2013-07-12 09:20:00,70.8,69.6,29.92,SE,125,0.0,0.0,96,0.04,,,0.09,Wunderground v.1.15,2013-07-12 13:20:00,
2013-07-12 09:30:00,71.1,69.9,29.92,WNW,294,0.0,0.0,96,0.00,,,0.09,Wunderground v.1.15,2013-07-12 13:30:00,
2013-07-12 09:40:00,71.3,70.1,29.92,WNW,294,0.0,0.0,96,0.00,,,0.09,Wunderground v.1.15,2013-07-12 13:40:00,
2013-07-12 09:50:00,71.4,70.2,29.93,NW,305,0.0,0.0,96,0.00,,,0.09,Wunderground v.1.15,2013-07-12 13:50:00,
2013-07-12 10:00:00,71.6,70.4,29.93,WNW,303,0.0,0.0,96,0.00,,,0.09,Wunderground v.1.15,2013-07-12 14:00:00,
2013-07-12 10:10:00,72.0,70.8,29.93,WNW,303,0.0,0.0,96,0.00,,,0.09,Wunderground v.1.15,2013-07-12 14:10:00,
2013-07-12 10:20:00,72.2,71.0,29.93,WSW,254,0.0,0.0,96,0.00,,,0.09,Wunderground v.1.15,2013-07-12 14:20:00,
2013-07-12 10:30:00,72.5,71.3,29.93,SW,229,0.0,0.0,96,0.00,,,0.09,Wunderground v.1.15,2013-07-12 14:30:00,
2013-07-12 10:40:00,72.8,71.6,29.94,SW,229,0.0,0.0,96,0.00,,,0.09,Wunderground v.1.15,2013-07-12 14:40:00,
2013-07-12 10:50:00,72.7,71.2,29.94,SW,229,0.0,0.0,95,0.00,,,0.09,Wunderground v.1.15,2013-07-12 14:50:00,
2013-07-12 11:00:00,72.9,71.4,29.94,West,278,0.0,0.0,95,0.00,,,0.09,Wunderground v.1.15,2013-07-12 15:00:00,
2013-07-12 11:10:00,73.0,71.5,29.94,West,277,0.0,0.0,95,0.00,,,0.09,Wunderground v.1.15,2013-07-12 15:10:00,
2013-07-12 11:20:00,73.1,71.6,29.94,WNW,302,0.0,0.0,95,0.00,,,0.09,Wunderground v.1.15,2013-07-12 15:20:00,
2013-07-12 11:30:00,73.0,71.2,29.94,WNW,302,1.0,1.0,94,0.00,,,0.09,Wunderground v.1.15,2013-07-12 15:30:00,
2013-07-12 11:40:00,72.8,71.0,29.94,NW,312,0.0,2.0,94,0.00,,,0.09,Wunderground v.1.15,2013-07-12 15:40:00,
2013-07-12 11:50:00,72.7,70.9,29.95,NW,311,0.0,0.0,94,0.00,,,0.09,Wunderground v.1.15,2013-07-12 15:50:00,
2013-07-12 12:00:00,72.7,70.9,29.95,NNW,330,1.0,1.0,94,0.00,,,0.09,Wunderground v.1.15,2013-07-12 16:00:00,
2013-07-12 12:10:00,72.5,70.7,29.95,North,360,1.0,1.0,94,0.00,,,0.09,Wunderground v.1.15,2013-07-12 16:10:00,
2013-07-12 12:20:00,72.1,70.3,29.95,North,360,0.0,0.0,94,0.00,,,0.09,Wunderground v.1.15,2013-07-12 16:20:00,
2013-07-12 12:30:00,72.0,70.2,29.94,North,360,0.0,0.0,94,0.00,,,0.09,Wunderground v.1.15,2013-07-12 16:30:00,
2013-07-12 12:40:00,72.1,70.3,29.95,North,360,0.0,0.0,94,0.00,,,0.09,Wunderground v.1.15,2013-07-12 16:40:00,
2013-07-12 12:50:00,72.2,70.4,29.94,NNW,336,0.0,2.0,94,0.00,,,0.09,Wunderground v.1.15,2013-07-12 16:50:00,
2013-07-12 13:00:00,72.3,70.2,29.95,NNW,327,1.0,1.0,93,0.00,,,0.09,Wunderground v.1.15,2013-07-12 17:00:00,
2013-07-12 13:10:00,72.3,70.2,29.95,SW,227,0.0,0.0,93,0.00,,,0.09,Wunderground v.1.15,2013-07-12 17:10:00,
2013-07-12 13:20:00,72.3,70.2,29.95,North,349,1.0,1.0,93,0.00,,,0.09,Wunderground v.1.15,2013-07-12 17:20:00,
2013-07-12 13:30:00,72.1,70.0,29.95,NNW,345,0.0,0.0,93,0.00,,,0.09,Wunderground v.1.15,2013-07-12 17:30:00,
2013-07-12 13:40:00,72.0,69.9,29.95,NW,314,1.0,1.0,93,0.00,,,0.09,Wunderground v.1.15,2013-07-12 17:40:00,
2013-07-12 13:50:00,72.2,70.4,29.95,NW,313,0.0,1.0,94,0.00,,,0.09,Wunderground v.1.15,2013-07-12 17:50:00,
2013-07-12 14:00:00,71.9,70.1,29.95,NW,323,1.0,1.0,94,0.00,,,0.09,Wunderground v.1.15,2013-07-12 18:00:00,
2013-07-12 14:10:00,71.8,70.0,29.95,NNW,329,0.0,0.0,94,0.00,,,0.09,Wunderground v.1.15,2013-07-12 18:10:00,
2013-07-12 14:20:00,71.6,69.8,29.95,NW,320,1.0,1.0,94,0.00,,,0.09,Wunderground v.1.15,2013-07-12 18:20:00,
2013-07-12 14:30:00,71.5,69.7,29.95,WNW,298,0.0,0.0,94,0.00,,,0.09,Wunderground v.1.15,2013-07-12 18:30:00,
2013-07-12 14:40:00,71.5,69.7,29.96,North,355,1.0,2.0,94,0.00,,,0.09,Wunderground v.1.15,2013-07-12 18:40:00,
2013-07-12 14:50:00,71.0,69.2,29.96,NNW,333,1.0,1.0,94,0.00,,,0.09,Wunderground v.1.15,2013-07-12 18:50:00,
2013-07-12 15:00:00,70.8,69.0,29.96,NW,315,0.0,0.0,94,0.00,,,0.09,Wunderground v.1.15,2013-07-12 19:00:00,
2013-07-12 15:10:00,70.7,68.9,29.95,North,355,0.0,0.0,94,0.00,,,0.09,Wunderground v.1.15,2013-07-12 19:10:00,
2013-07-12 15:20:00,71.0,69.5,29.96,NNW,327,0.0,0.0,95,0.00,,,0.09,Wunderground v.1.15,2013-07-12 19:20:00,
2013-07-12 15:30:00,71.2,69.4,29.95,NNW,340,1.0,1.0,94,0.00,,,0.09,Wunderground v.1.15,2013-07-12 19:30:00,
2013-07-12 15:40:00,71.5,69.7,29.95,NE,45,0.0,0.0,94,0.00,,,0.09,Wunderground v.1.15,2013-07-12 19:40:00,
2013-07-12 15:50:00,71.9,70.1,29.95,NW,310,1.0,1.0,94,0.00,,,0.09,Wunderground v.1.15,2013-07-12 19:50:00,
2013-07-12 16:00:00,72.1,70.0,29.95,West,281,1.0,1.0,93,0.00,,,0.09,Wunderground v.1.15,2013-07-12 20:00:00,
2013-07-12 16:10:00,72.1,69.6,29.95,WNW,291,1.0,1.0,92,0.00,,,0.09,Wunderground v.1.15,2013-07-12 20:10:00,
2013-07-12 16:20:00,72.4,70.3,29.95,WNW,299,0.0,0.0,93,0.00,,,0.09,Wunderground v.1.15,2013-07-12 20:20:00,
2013-07-12 16:30:00,72.4,69.9,29.95,West,265,1.0,1.0,92,0.00,,,0.09,Wunderground v.1.15,2013-07-12 20:30:00,
2013-07-12 16:40:00,72.6,70.5,29.95,SW,224,0.0,0.0,93,0.00,,,0.09,Wunderground v.1.15,2013-07-12 20:40:00,
2013-07-12 16:50:00,72.6,70.1,29.95,WSW,252,0.0,0.0,92,0.00,,,0.09,Wunderground v.1.15,2013-07-12 20:50:00,
2013-07-12 17:00:00,72.5,70.0,29.96,WSW,252,0.0,0.0,92,0.00,,,0.09,Wunderground v.1.15,2013-07-12 21:00:00,
2013-07-12 17:10:00,72.6,70.5,29.96,WSW,252,0.0,0.0,93,0.00,,,0.09,Wunderground v.1.15,2013-07-12 21:10:00,
2013-07-12 17:20:00,72.6,70.5,29.96,WSW,252,0.0,0.0,93,0.00,,,0.09,Wunderground v.1.15,2013-07-12 21:20:00,
2013-07-12 17:30:00,72.5,70.0,29.96,SW,219,0.0,0.0,92,0.00,,,0.09,Wunderground v.1.15,2013-07-12 21:30:00,
2013-07-12 17:40:00,72.2,69.7,29.96,SW,219,0.0,0.0,92,0.00,,,0.09,Wunderground v.1.15,2013-07-12 21:40:00,
2013-07-12 17:50:00,71.9,69.4,29.96,SW,219,0.0,0.0,92,0.00,,,0.09,Wunderground v.1.15,2013-07-12 21:50:00,
2013-07-12 18:00:00,71.7,69.3,29.96,NE,52,0.0,0.0,92,0.00,,,0.09,Wunderground v.1.15,2013-07-12 22:00:00,
2013-07-12 18:10:00,71.7,69.3,29.96,ENE,71,0.0,0.0,92,0.00,,,0.09,Wunderground v.1.15,2013-07-12 22:10:00,
2013-07-12 18:20:00,71.7,69.6,29.96,ENE,71,0.0,0.0,93,0.00,,,0.09,Wunderground v.1.15,2013-07-12 22:20:00,
2013-07-12 18:30:00,71.8,69.7,29.96,ENE,71,0.0,0.0,93,0.00,,,0.09,Wunderground v.1.15,2013-07-12 22:30:00,
2013-07-12 18:40:00,71.8,69.7,29.97,ENE,71,0.0,0.0,93,0.00,,,0.09,Wunderground v.1.15,2013-07-12 22:40:00,
2013-07-12 18:50:00,71.7,69.6,29.97,ENE,71,0.0,0.0,93,0.00,,,0.09,Wunderground v.1.15,2013-07-12 22:50:00,
2013-07-12 19:00:00,71.7,69.6,29.96,ENE,71,0.0,0.0,93,0.00,,,0.09,Wunderground v.1.15,2013-07-12 23:00:00,
2013-07-12 19:10:00,71.5,69.4,29.97,ENE,71,0.0,0.0,93,0.00,,,0.09,Wunderground v.1.15,2013-07-12 23:10:00,
2013-07-12 19:20:00,71.3,69.2,29.97,ENE,69,0.0,0.0,93,0.00,,,0.09,Wunderground v.1.15,2013-07-12 23:20:00,
2013-07-12 19:30:00,71.3,68.9,29.98,NW,315,0.0,0.0,92,0.00,,,0.09,Wunderground v.1.15,2013-07-12 23:30:00,
2013-07-12 19:40:00,71.1,69.0,29.98,NW,314,0.0,0.0,93,0.00,,,0.09,Wunderground v.1.15,2013-07-12 23:40:00,
2013-07-12 19:50:00,71.0,68.6,29.99,NW,315,0.0,0.0,92,0.00,,,0.09,Wunderground v.1.15,2013-07-12 23:50:00,
2013-07-12 20:00:00,70.8,68.7,29.99,NW,315,0.0,0.0,93,0.00,,,0.09,Wunderground v.1.15,2013-07-13 00:00:00,
2013-07-12 20:10:00,70.7,68.6,29.99,NW,315,0.0,0.0,93,0.00,,,0.09,Wunderground v.1.15,2013-07-13 00:10:00,
2013-07-12 20:20:00,70.7,68.6,29.99,NW,315,0.0,0.0,93,0.00,,,0.09,Wunderground v.1.15,2013-07-13 00:20:00,
2013-07-12 20:30:00,70.6,68.5,29.99,NW,315,0.0,0.0,93,0.00,,,0.09,Wunderground v.1.15,2013-07-13 00:30:00,
2013-07-12 20:40:00,70.5,68.4,29.99,NW,314,0.0,0.0,93,0.00,,,0.09,Wunderground v.1.15,2013-07-13 00:40:00,
2013-07-12 20:50:00,70.5,68.4,29.99,NW,314,0.0,0.0,93,0.00,,,0.09,Wunderground v.1.15,2013-07-13 00:50:00,
2013-07-12 21:10:00,70.3,68.2,30.00,NW,314,0.0,0.0,93,0.00,,,0.09,Wunderground v.1.15,2013-07-13 01:10:00,
2013-07-12 21:20:00,70.2,68.4,29.99,NW,315,0.0,0.0,94,0.00,,,0.09,Wunderground v.1.15,2013-07-13 01:20:00,
2013-07-12 21:30:00,70.3,68.5,30.00,NW,315,0.0,0.0,94,0.00,,,0.09,Wunderground v.1.15,2013-07-13 01:30:00,
2013-07-12 21:40:00,70.2,68.4,30.00,NW,314,0.0,0.0,94,0.00,,,0.09,Wunderground v.1.15,2013-07-13 01:40:00,
2013-07-12 21:50:00,70.1,68.3,30.01,NW,315,0.0,0.0,94,0.00,,,0.09,Wunderground v.1.15,2013-07-13 01:50:00,
2013-07-12 22:00:00,70.2,68.4,30.01,NW,315,0.0,0.0,94,0.00,,,0.09,Wunderground v.1.15,2013-07-13 02:00:00,
2013-07-12 22:10:00,70.0,68.2,30.02,NW,314,0.0,0.0,94,0.00,,,0.09,Wunderground v.1.15,2013-07-13 02:10:00,
2013-07-12 22:20:00,69.9,68.1,30.02,NW,315,0.0,0.0,94,0.00,,,0.09,Wunderground v.1.15,2013-07-13 02:20:00,
2013-07-12 22:30:00,69.9,68.1,30.02,NW,314,0.0,0.0,94,0.00,,,0.09,Wunderground v.1.15,2013-07-13 02:30:00,
2013-07-12 22:40:00,69.8,68.0,30.02,NW,314,0.0,0.0,94,0.00,,,0.09,Wunderground v.1.15,2013-07-13 02:40:00,
2013-07-12 22:50:00,69.7,67.9,30.02,NW,315,0.0,0.0,94,0.00,,,0.09,Wunderground v.1.15,2013-07-13 02:50:00,
2013-07-12 23:00:00,69.7,67.9,30.03,NW,315,0.0,0.0,94,0.00,,,0.09,Wunderground v.1.15,2013-07-13 03:00:00,
2013-07-12 23:10:00,69.6,68.1,30.03,NW,315,0.0,0.0,95,0.00,,,0.09,Wunderground v.1.15,2013-07-13 03:10:00,
2013-07-12 23:20:00,69.7,67.9,30.02,NW,314,0.0,0.0,94,0.00,,,0.09,Wunderground v.1.15,2013-07-13 03:20:00,
2013-07-12 23:30:00,69.5,68.0,30.02,NW,315,0.0,0.0,95,0.00,,,0.09,Wunderground v.1.15,2013-07-13 03:30:00,
2013-07-12 23:40:00,69.5,68.0,30.03,NW,315,0.0,0.0,95,0.00,,,0.09,Wunderground v.1.15,2013-07-13 03:40:00,
2013-07-12 23:50:00,69.4,67.6,30.03,NW,315,0.0,0.0,94,0.00,,,0.09,Wunderground v.1.15,2013-07-13 03:50:00,